Showing default

ICEYE-X36, 59103

Orbit data source: Space-Track

ICEYE-X36, 59103 is a payload satellite owned by ICEYE US (US) in SSO that was launched on Mon, 04 Mar 2024 UTC via an FALCON 9 launch vehicle from the Air Force Western Test Range (AFWTR). Payload-class satellites include a variety of spacecraft equipped with specific instruments for various scientific and technological missions. These include communications satellites like Starlink; space stations such as the ISS; scientific satellites like the Hubble; Earth observation satellites from companies like Planet Labs, Umbra, and HawkEye 360; GPS; miniature CubeSats for education and research; and military/defense satellites.

Loading next visibility...
Identifier
59103, 2024-043F
Orbit
SSO
Country
Flag of USUS
Related business
Manufacturer
ICEYE US
Mission
Operational Commercial Radar Imaging
Bus & Motor
ICEYE, Unknown motor
Mass
90 kg wet, 89 kg dry
Launch date (UTC)
2024-03-04 (2 years ago)
Launch vehicle
FALCON 9
Launch site
Air Force Western Test Range (AFWTR)
Object type
Payload
Rocket body
Debris
Shape & HBR
Box + 1 Pan, 1.6 m
Radar Cross Section
0.825 m², Medium (>0.1 m² and < 1m²)

Expand to show TLE details & history
Last TLE update: 6 hours ago

TLE from 6 hours ago
0 ICEYE-X36
1 59103U 24043F   26034.25942652  .00008255  00000-0  57849-3 0  9997
2 59103  97.8151 170.2640 0006470  58.6037 301.5821 15.05464569104984
Epoch: 2026-02-03T06:13Z
TLE epoch observation values (Epoch: 2026-02-03T06:13:34.451Z)
Latitude
-0.00003°
Longitude
-56.57247°
Altitude
550.793 km
Speed
7.588 km/s
True Right ascension
11h 21m 03s
True Declination
0° 00' 00"
Sunlit
Object was in full shadow at epoch
Visualization orbit readout
Latitude
Unknown
Longitude
Unknown
Altitude
Unknown
Speed
Unknown
Apparent Right ascension
Unknown
Apparent Declination
Unknown
Sunlit
N/A
Visualization observer readout
Local Sidereal Time
13:56:11
Azimuth
Unknown
Elevation
Unknown
Doppler factor
Unknown
Orbital elements
Apogee altitude
551.564 km
Perigee altitude
542.602 km
Semi-major axis
6,925.22 km
Eccentricity
0.00065
Inclination
97.8151°
RAAN
170.264°
Arg. of periapsis
58.6037°
True anomaly
301.51891°
Mean anomaly
301.5821°
Eccentric anomaly
301.55051°
Mean motion
3.76611 °/min
Orbital period
95.59 mins
BSTAR
0.00057849
Loading maneuver chart data...
Computing Atmospheric mass density...
Loading historical data...
Loading historical data...
Loading historical data...
Loading historical data...
Loading historical data...
Loading historical data...
Loading historical data...

Documentation

Showing up to 5 results
|